KI5NXU Weather Reports


Display with metric or nautical units.
time (UTC)temp
F
wind
direction
speed
MPH
gust
MPH
rain 1hr
in
rain 24hr
in
rain mn
in
humidity
%
barometer
mb
20260903062239 84 164 4.0 6.0 0.00 0.00 0.00 67 1012.8
20260903061735 84 162 3.0 3.0 0.00 0.00 0.00 67 1013.2
20260903061233 84 151 0.0 1.0 0.00 0.00 0.00 66 1013.3
20260903060729 84 146 1.0 2.0 0.00 0.00 0.00 66 1013.0
20260903060229 84 135 0.0 0.0 0.00 0.00 0.00 65 1012.8
20260903055726 84 150 1.0 3.0 0.00 0.00 0.00 65 1012.8
20260903055225 84 126 2.0 3.0 0.00 0.00 0.00 64 1012.9
20260903054721 85 163 2.0 3.0 0.00 0.00 0.00 64 1012.7
20260903054216 85 146 5.0 7.0 0.00 0.00 0.00 64 1013.0
20260903053712 85 155 1.0 2.0 0.00 0.00 0.00 64 1013.0
20260903053207 85 135 2.0 2.0 0.00 0.00 0.00 63 1013.3
20260903052703 85 153 2.0 3.0 0.00 0.00 0.00 63 1013.2
20260903052158 85 147 1.0 2.0 0.00 0.00 0.00 63 1013.2
20260903051653 85 175 4.0 6.0 0.00 0.00 0.00 63 1012.8
20260903051149 85 174 2.0 3.0 0.00 0.00 0.00 62 1013.2
20260903050644 86 145 2.0 2.0 0.00 0.00 0.00 62 1013.0
20260903050137 86 149 2.0 3.0 0.00 0.00 0.00 61 1013.3
20260903045637 86 148 5.0 7.0 0.00 0.00 0.00 60 1013.0
20260903045134 86 164 3.0 5.0 0.00 0.00 0.00 60 1013.0
20260903044630 86 154 3.0 3.0 0.00 0.00 0.00 59 1013.0
20260903044125 86 162 3.0 3.0 0.00 0.00 0.00 58 1013.2
20260903043622 86 160 3.0 5.0 0.00 0.00 0.00 58 1013.0
20260903043121 86 158 3.0 3.0 0.00 0.00 0.00 57 1013.0
20260903042620 87 129 3.0 5.0 0.00 0.00 0.00 56 1012.9
20260903042115 87 152 2.0 2.0 0.00 0.00 0.00 56 1012.9
20260903041612 87 137 3.0 3.0 0.00 0.00 0.00 56 1013.2
20260903041108 87 122 2.0 2.0 0.00 0.00 0.00 55 1012.8
20260903040606 87 165 2.0 3.0 0.00 0.00 0.00 54 1013.0
20260903040103 88 152 1.0 1.0 0.00 0.00 0.00 54 1013.0
20260903035558 88 151 2.0 2.0 0.00 0.00 0.00 53 1013.2
20260903035054 88 140 2.0 7.0 0.00 0.00 0.00 53 1012.9
20260903034549 88 154 3.0 5.0 0.00 0.00 0.00 52 1012.9
20260903034044 89 171 4.0 6.0 0.00 0.00 0.00 52 1013.0
20260903033538 89 173 3.0 5.0 0.00 0.00 0.00 51 1012.8
20260903033034 89 147 3.0 5.0 0.00 0.00 0.00 51 1012.9
20260903032529 89 152 1.0 2.0 0.00 0.00 0.00 50 1013.0
20260903032024 89 181 3.0 5.0 0.00 0.00 0.00 49 1012.6
20260903031524 90 122 3.0 3.0 0.00 0.00 0.00 48 1012.6
20260903031019 90 146 3.0 5.0 0.00 0.00 0.00 48 1012.5
20260903030515 90 137 1.0 2.0 0.00 0.00 0.00 48 1012.6
20260903030011 90 119 1.0 1.0 0.00 0.00 0.00 47 1012.6
20260903025506 91 102 3.0 5.0 0.00 0.00 0.00 47 1012.5
20260903025001 91 99 2.0 5.0 0.00 0.00 0.00 47 1012.4
20260903024500 91 97 3.0 3.0 0.00 0.00 0.00 47 1012.5
20260903023955 91 123 2.0 2.0 0.00 0.00 0.00 47 1012.4
20260903023451 91 132 1.0 2.0 0.00 0.00 0.00 46 1012.4
20260903022946 91 96 4.0 5.0 0.00 0.00 0.00 46 1012.8
20260903022445 91 163 2.0 2.0 0.00 0.00 0.00 46 1012.1
20260903021943 92 122 3.0 5.0 0.00 0.00 0.00 46 1012.1
20260903021439 92 116 2.0 2.0 0.00 0.00 0.00 46 1012.1
20260903020934 92 108 3.0 9.0 0.00 0.00 0.00 45 1012.2
20260903020430 92 109 2.0 3.0 0.00 0.00 0.00 45 1012.2
20260903015924 93 133 6.0 8.0 0.00 0.00 0.00 45 1012.2
20260903015420 93 136 2.0 2.0 0.00 0.00 0.00 45 1012.1
20260903014916 93 139 2.0 2.0 0.00 0.00 0.00 45 1012.0
20260903014414 93 83 3.0 6.0 0.00 0.00 0.00 45 1012.0
20260903013910 93 116 2.0 3.0 0.00 0.00 0.00 45 1011.9
20260903013410 93 110 5.0 7.0 0.00 0.00 0.00 45 1011.9
20260903012909 93 144 3.0 7.0 0.00 0.00 0.00 44 1011.9
20260903012408 94 132 2.0 2.0 0.00 0.00 0.00 44 1011.7
20260903011907 94 135 3.0 3.0 0.00 0.00 0.00 44 1011.7
20260903011403 94 153 3.0 6.0 0.00 0.00 0.00 43 1011.6
20260903010857 94 136 1.0 1.0 0.00 0.00 0.00 43 1011.7
20260903010353 94 125 4.0 6.0 0.00 0.00 0.00 43 1011.5
20260903005851 95 138 2.0 3.0 0.00 0.00 0.00 43 1011.5
20260903005346 95 141 3.0 5.0 0.00 0.00 0.00 42 1011.4
20260903004842 95 111 3.0 3.0 0.00 0.00 0.00 41 1011.5
20260903004338 96 112 1.0 2.0 0.00 0.00 0.00 41 1011.6
20260903003833 96 134 1.0 2.0 0.00 0.00 0.00 41 1011.5
20260903003333 96 118 5.0 7.0 0.00 0.00 0.00 40 1011.4
20260903002832 97 152 4.0 7.0 0.00 0.00 0.00 40 1011.3
20260903002327 98 134 3.0 6.0 0.00 0.00 0.00 39 1011.2
20260903001822 98 65 5.0 9.0 0.00 0.00 0.00 38 1011.2
20260903001317 98 131 1.0 3.0 0.00 0.00 0.00 38 1011.3
20260903000812 99 87 4.0 6.0 0.00 0.00 0.00 37 1011.0
20260903000306 100 74 4.0 5.0 0.00 0.00 0.00 37 1011.4
20260902235804 100 123 1.0 2.0 0.00 0.00 0.00 37 1010.9
20260902235300 100 81 3.0 3.0 0.00 0.00 0.00 36 1011.1
20260902234754 100 132 2.0 2.0 0.00 0.00 0.00 36 1011.2
20260902234253 101 118 3.0 3.0 0.00 0.00 0.00 36 1010.9
20260902233747 101 117 2.0 2.0 0.00 0.00 0.00 36 1011.3
20260902233242 101 131 1.0 2.0 0.00 0.00 0.00 36 1011.1
20260902232741 100 131 3.0 3.0 0.00 0.00 0.00 36 1011.1
20260902232240 102 148 3.0 3.0 0.00 0.00 0.00 36 1011.1
20260902231740 102 164 2.0 2.0 0.00 0.00 0.00 36 1011.2
20260902231235 102 87 2.0 3.0 0.00 0.00 0.00 35 1011.1
20260902230735 102 112 2.0 3.0 0.00 0.00 0.00 36 1010.9
20260902230234 102 101 5.0 8.0 0.00 0.00 0.00 36 1011.1
20260902225729 102 151 3.0 5.0 0.00 0.00 0.00 36 1011.3
20260902225224 102 147 4.0 6.0 0.00 0.00 0.00 36 1011.3
20260902224722 101 116 4.0 5.0 0.00 0.00 0.00 36 1011.0
20260902224218 99 126 1.0 1.0 0.00 0.00 0.00 38 1011.0
20260902223714 100 113 2.0 2.0 0.00 0.00 0.00 37 1011.0
20260902223214 100 93 3.0 6.0 0.00 0.00 0.00 37 1011.0
20260902222713 103 65 6.0 7.0 0.00 0.00 0.00 35 1011.2
20260902222213 103 115 2.0 2.0 0.00 0.00 0.00 35 1011.3
20260902221708 104 138 1.0 1.0 0.00 0.00 0.00 35 1011.1
20260902221206 104 162 3.0 3.0 0.00 0.00 0.00 34 1011.2
20260902220702 103 59 2.0 2.0 0.00 0.00 0.00 34 1011.1
20260902220157 104 135 4.0 6.0 0.00 0.00 0.00 34 1011.3
20260902215653 103 154 2.0 5.0 0.00 0.00 0.00 34 1011.0
20260902215148 103 18 2.0 2.0 0.00 0.00 0.00 35 1011.3
20260902214643 103 145 1.0 1.0 0.00 0.00 0.00 35 1011.2
20260902214142 102 89 3.0 5.0 0.00 0.00 0.00 36 1011.1
20260902213638 100 94 0.0 1.0 0.00 0.00 0.00 37 1011.4
20260902213137 101 124 3.0 5.0 0.00 0.00 0.00 37 1011.6
20260902212632 101 72 2.0 3.0 0.00 0.00 0.00 36 1011.3
20260902212129 102 125 3.0 3.0 0.00 0.00 0.00 36 1011.5
20260902211625 102 14 5.0 7.0 0.00 0.00 0.00 35 1011.5
20260902211120 102 74 5.0 6.0 0.00 0.00 0.00 35 1011.6
20260902210619 102 139 2.0 2.0 0.00 0.00 0.00 36 1011.7
20260902210114 101 107 1.0 2.0 0.00 0.00 0.00 38 1011.9
20260902205613 99 221 3.0 3.0 0.00 0.00 0.00 38 1012.0
20260902205108 100 324 4.0 6.0 0.00 0.00 0.00 39 1012.0
20260902204608 102 211 2.0 2.0 0.00 0.00 0.00 37 1011.9
20260902204103 101 237 5.0 5.0 0.00 0.00 0.00 37 1012.2
20260902203558 98 22 2.0 3.0 0.00 0.00 0.00 39 1012.1
20260902203057 100 273 6.0 7.0 0.00 0.00 0.00 39 1012.1
20260902202553 99 305 7.0 7.0 0.00 0.00 0.00 39 1012.2
20260902202050 99 296 8.0 9.0 0.00 0.00 0.00 40 1012.2
20260902201545 99 323 6.0 7.0 0.00 0.00 0.00 40 1012.5
20260902201039 99 318 4.0 6.0 0.00 0.00 0.00 39 1012.5
20260902200534 98 285 4.0 5.0 0.00 0.00 0.00 41 1012.5
20260902200031 100 216 3.0 3.0 0.00 0.00 0.00 38 1012.9
20260902195526 100 138 2.0 2.0 0.00 0.00 0.00 39 1012.7
20260902195024 98 250 4.0 6.0 0.00 0.00 0.00 40 1012.9
20260902194518 98 320 4.0 5.0 0.00 0.00 0.00 39 1012.9
20260902194013 99 298 4.0 7.0 0.00 0.00 0.00 40 1013.0
20260902193509 98 276 4.0 6.0 0.00 0.00 0.00 40 1013.0
20260902193009 99 275 5.0 7.0 0.00 0.00 0.00 40 1013.3
20260902192507 98 302 7.0 7.0 0.00 0.00 0.00 40 1013.3
20260902192006 98 246 6.0 7.0 0.00 0.00 0.00 41 1013.4
20260902191502 99 268 4.0 5.0 0.00 0.00 0.00 41 1013.7
20260902190956 98 213 1.0 2.0 0.00 0.00 0.00 40 1013.5
20260902190452 98 254 4.0 6.0 0.00 0.00 0.00 41 1013.7
20260902185947 98 311 5.0 5.0 0.00 0.00 0.00 41 1013.7
20260902185443 97 273 3.0 5.0 0.00 0.00 0.00 43 1014.0
20260902184938 96 305 5.0 5.0 0.00 0.00 0.00 44 1013.8
20260902184433 96 268 5.0 6.0 0.00 0.00 0.00 43 1013.9
20260902183929 97 330 5.0 5.0 0.00 0.00 0.00 42 1013.8
20260902183425 98 292 5.0 6.0 0.00 0.00 0.00 40 1014.1
20260902182921 98 211 3.0 3.0 0.00 0.00 0.00 40 1014.2
20260902182418 97 214 4.0 5.0 0.00 0.00 0.00 42 1014.4
20260902181914 95 157 1.0 1.0 0.00 0.00 0.00 45 1014.4
20260902181409 94 269 3.0 3.0 0.00 0.00 0.00 45 1014.5
20260902180908 95 200 2.0 2.0 0.00 0.00 0.00 46 1014.7
20260902180404 94 308 3.0 3.0 0.00 0.00 0.00 48 1014.6
20260902175859 94 311 3.0 3.0 0.00 0.00 0.00 48 1014.7
20260902175354 95 278 3.0 5.0 0.00 0.00 0.00 46 1014.6
20260902174850 96 309 3.0 5.0 0.00 0.00 0.00 45 1014.8
20260902174347 96 297 2.0 5.0 0.00 0.00 0.00 45 1015.0
20260902173843 95 356 3.0 3.0 0.00 0.00 0.00 45 1015.0
20260902173342 95 280 3.0 3.0 0.00 0.00 0.00 47 1015.0
20260902172836 96 306 6.0 7.0 0.00 0.00 0.00 46 1015.2
20260902172336 95 280 4.0 5.0 0.00 0.00 0.00 47 1015.0
20260902171831 96 305 5.0 6.0 0.00 0.00 0.00 45 1015.1
20260902171326 95 221 3.0 3.0 0.00 0.00 0.00 48 1015.1
20260902170817 95 289 5.0 6.0 0.00 0.00 0.00 48 1015.3
20260902170312 95 299 5.0 6.0 0.00 0.00 0.00 48 1015.3
20260902165808 94 226 4.0 5.0 0.00 0.00 0.00 48 1015.4
20260902165301 97 324 4.0 5.0 0.00 0.00 0.00 48 1015.6
20260902164756 97 70 1.0 1.0 0.00 0.00 0.00 47 1015.5
20260902164251 94 82 1.0 2.0 0.00 0.00 0.00 49 1015.5
20260902163745 96 214 5.0 7.0 0.00 0.00 0.00 48 1015.6
20260902163239 93 100 1.0 2.0 0.00 0.00 0.00 51 1015.7
20260902162738 93 302 3.0 6.0 0.00 0.00 0.00 52 1015.6
20260902162233 95 226 3.0 5.0 0.00 0.00 0.00 52 1015.7
20260902161728 93 162 2.0 2.0 0.00 0.00 0.00 52 1015.7
20260902161223 95 207 3.0 5.0 0.00 0.00 0.00 50 1015.9
20260902160720 96 127 1.0 1.0 0.00 0.00 0.00 49 1015.8
20260902160214 95 213 3.0 3.0 0.00 0.00 0.00 48 1015.6
20260902155712 95 127 1.0 2.0 0.00 0.00 0.00 50 1015.9
20260902155211 95 114 2.0 2.0 0.00 0.00 0.00 49 1015.7
20260902154707 93 225 6.0 6.0 0.00 0.00 0.00 53 1015.8
20260902154206 93 183 1.0 2.0 0.00 0.00 0.00 53 1015.8
20260902153700 94 191 3.0 3.0 0.00 0.00 0.00 52 1015.7
20260902153155 94 147 1.0 5.0 0.00 0.00 0.00 50 1015.8
20260902152651 93 122 1.0 1.0 0.00 0.00 0.00 52 1015.9
20260902152146 92 141 3.0 3.0 0.00 0.00 0.00 53 1015.7
20260902151642 93 128 2.0 2.0 0.00 0.00 0.00 53 1015.6
20260902151136 91 155 2.0 2.0 0.00 0.00 0.00 54 1015.9
20260902150632 92 149 3.0 3.0 0.00 0.00 0.00 55 1015.8
20260902150127 90 134 1.0 2.0 0.00 0.00 0.00 56 1015.8
20260902145621 89 136 1.0 1.0 0.00 0.00 0.00 58 1015.6
20260902145116 90 117 2.0 2.0 0.00 0.00 0.00 56 1015.8
20260902144612 89 81 2.0 2.0 0.00 0.00 0.00 58 1015.8
20260902144113 89 102 0.0 1.0 0.00 0.00 0.00 58 1015.9
20260902143607 88 114 1.0 1.0 0.00 0.00 0.00 60 1015.7
20260902143102 87 122 1.0 1.0 0.00 0.00 0.00 60 1015.8
20260902142558 87 129 2.0 2.0 0.00 0.00 0.00 61 1015.8
20260902142053 86 120 1.0 2.0 0.00 0.00 0.00 62 1015.6
20260902141548 86 148 2.0 3.0 0.00 0.00 0.00 62 1015.9
20260902141043 86 148 2.0 2.0 0.00 0.00 0.00 62 1015.5
20260902140544 86 132 1.0 1.0 0.00 0.00 0.00 63 1015.8
20260902140039 85 122 2.0 2.0 0.00 0.00 0.00 63 1015.7
20260902135533 85 148 2.0 3.0 0.00 0.00 0.00 64 1015.7
20260902135028 84 146 2.0 2.0 0.00 0.00 0.00 65 1015.5
20260902134523 84 152 2.0 3.0 0.00 0.00 0.00 65 1015.7
20260902134017 84 138 1.0 2.0 0.00 0.00 0.00 66 1015.9
20260902133512 84 141 3.0 3.0 0.00 0.00 0.00 66 1015.7
20260902133012 83 153 3.0 3.0 0.00 0.00 0.00 67 1015.6
20260902132507 83 122 0.0 1.0 0.00 0.00 0.00 68 1015.8
20260902132002 83 137 1.0 2.0 0.00 0.00 0.00 68 1015.5
20260902131458 81 125 0.0 1.0 0.00 0.00 0.00 70 1015.6
20260902130958 80 120 0.0 0.0 0.00 0.00 0.00 73 1015.9
20260902130454 79 98 0.0 0.0 0.00 0.00 0.00 74 1015.5
20260902125949 79 93 0.0 0.0 0.00 0.00 0.00 74 1015.5
20260902125445 78 98 0.0 1.0 0.00 0.00 0.00 75 1015.7
20260902124940 78 114 0.0 0.0 0.00 0.00 0.00 75 1015.6
20260902124436 78 124 0.0 0.0 0.00 0.00 0.00 75 1015.5
20260902123931 78 132 0.0 1.0 0.00 0.00 0.00 75 1015.4
20260902123428 78 139 1.0 1.0 0.00 0.00 0.00 75 1015.6
20260902122926 78 127 0.0 0.0 0.00 0.00 0.00 75 1015.5
20260902122422 77 127 0.0 0.0 0.00 0.00 0.00 75 1015.3
20260902121917 77 127 1.0 1.0 0.00 0.00 0.00 75 1015.2
20260902121412 78 127 0.0 1.0 0.00 0.00 0.00 75 1015.4
20260902120907 78 130 1.0 1.0 0.00 0.00 0.00 75 1015.2
20260902120404 78 133 1.0 2.0 0.00 0.00 0.00 74 1015.2
20260902115903 78 139 1.0 2.0 0.00 0.00 0.00 74 1015.2
20260902115359 78 131 1.0 1.0 0.00 0.00 0.00 75 1015.4
20260902114856 77 130 0.0 1.0 0.00 0.00 0.00 75 1015.3
20260902114351 78 130 0.0 0.0 0.00 0.00 0.00 75 1015.1
20260902113846 78 130 0.0 1.0 0.00 0.00 0.00 75 1015.2
20260902113342 78 130 0.0 0.0 0.00 0.00 0.00 75 1015.1
20260902112841 78 130 0.0 0.0 0.00 0.00 0.00 74 1015.1
20260902112337 77 130 0.0 1.0 0.00 0.00 0.00 75 1015.1
20260902111833 78 130 0.0 0.0 0.00 0.00 0.00 74 1015.0
20260902111329 78 129 0.0 0.0 0.00 0.00 0.00 74 1015.1
20260902110824 78 133 0.0 0.0 0.00 0.00 0.00 74 1015.0
20260902110320 77 142 1.0 2.0 0.00 0.00 0.00 75 1015.1
20260902105820 77 121 0.0 0.0 0.00 0.00 0.00 75 1014.9
20260902105315 77 97 0.0 0.0 0.00 0.00 0.00 75 1015.2
20260902104810 77 96 1.0 1.0 0.00 0.00 0.00 75 1015.3
20260902104306 77 111 0.0 0.0 0.00 0.00 0.00 75 1015.0
20260902103806 77 99 0.0 0.0 0.00 0.00 0.00 74 1015.1
20260902103301 77 97 1.0 1.0 0.00 0.00 0.00 74 1015.2
20260902102756 77 117 0.0 0.0 0.00 0.00 0.00 74 1015.2
20260902102254 77 121 0.0 0.0 0.00 0.00 0.00 74 1015.2
20260902101748 78 122 0.0 0.0 0.00 0.00 0.00 74 1015.0
20260902101243 78 126 0.0 0.0 0.00 0.00 0.00 73 1015.1
20260902100742 78 127 0.0 0.0 0.00 0.00 0.00 72 1015.0
20260902100237 79 133 0.0 0.0 0.00 0.00 0.00 72 1015.3
20260902095737 79 97 1.0 1.0 0.00 0.00 0.00 71 1014.8
20260902095232 79 134 1.0 1.0 0.00 0.00 0.00 71 1015.1
20260902094727 79 141 1.0 1.0 0.00 0.00 0.00 71 1015.1
20260902094223 79 131 0.0 1.0 0.00 0.00 0.00 71 1015.1
20260902093722 79 130 1.0 1.0 0.00 0.00 0.00 70 1015.1
20260902093217 79 133 0.0 1.0 0.00 0.00 0.00 70 1015.1
20260902092712 79 136 0.0 1.0 0.00 0.00 0.00 70 1014.9
20260902092207 80 138 1.0 1.0 0.00 0.00 0.00 69 1015.1
20260902091706 80 131 0.0 0.0 0.00 0.00 0.00 69 1015.0
20260902091203 80 137 1.0 1.0 0.00 0.00 0.00 68 1015.2
20260902090659 80 142 1.0 1.0 0.00 0.00 0.00 68 1015.0
20260902090158 80 138 2.0 2.0 0.00 0.00 0.00 68 1015.0
20260902085658 81 151 3.0 3.0 0.00 0.00 0.00 67 1014.8
20260902085153 81 157 2.0 3.0 0.00 0.00 0.00 67 1014.7
20260902084649 81 142 1.0 2.0 0.00 0.00 0.00 67 1015.0
20260902084145 81 140 2.0 2.0 0.00 0.00 0.00 66 1015.3
20260902083640 81 148 2.0 2.0 0.00 0.00 0.00 65 1015.1
20260902083139 81 152 2.0 2.0 0.00 0.00 0.00 65 1014.9
20260902082635 81 144 2.0 2.0 0.00 0.00 0.00 65 1015.2
20260902082131 81 145 2.0 2.0 0.00 0.00 0.00 65 1015.0
20260902081628 82 140 0.0 1.0 0.00 0.00 0.00 64 1015.4
20260902081122 82 140 1.0 2.0 0.00 0.00 0.00 64 1015.0
20260902080617 82 149 1.0 2.0 0.00 0.00 0.00 63 1015.1
20260902080114 82 138 3.0 3.0 0.00 0.00 0.00 63 1015.3
20260902075613 82 144 1.0 2.0 0.00 0.00 0.00 63 1015.2
20260902075110 82 138 0.0 1.0 0.00 0.00 0.00 62 1015.2
20260902074605 83 135 1.0 1.0 0.00 0.00 0.00 62 1015.2
20260902074100 83 147 1.0 2.0 0.00 0.00 0.00 61 1015.1
20260902073555 83 141 2.0 3.0 0.00 0.00 0.00 61 1015.0
20260902073051 83 145 1.0 2.0 0.00 0.00 0.00 61 1015.1
20260902072547 84 160 3.0 5.0 0.00 0.00 0.00 60 1015.1
20260902072044 84 145 1.0 1.0 0.00 0.00 0.00 60 1015.3
20260902071543 83 135 3.0 5.0 0.00 0.00 0.00 61 1015.0
20260902071039 83 146 2.0 2.0 0.00 0.00 0.00 61 1015.0
20260902070534 83 144 1.0 1.0 0.00 0.00 0.00 61 1015.3
20260902070030 82 142 2.0 2.0 0.00 0.00 0.00 62 1015.3
20260902065529 82 141 2.0 2.0 0.00 0.00 0.00 61 1015.4
20260902065024 82 144 1.0 2.0 0.00 0.00 0.00 61 1014.9
20260902064520 82 135 1.0 1.0 0.00 0.00 0.00 61 1015.1
20260902064015 82 135 1.0 1.0 0.00 0.00 0.00 61 1014.9
20260902063515 82 136 1.0 1.0 0.00 0.00 0.00 61 1015.0
20260902063010 82 123 1.0 1.0 0.00 0.00 0.00 61 1015.0